STARLINK-1800 (46700 NORAD) Tracking and Keplerian Element Data

This shows tracking and keplerian element data for the satellite.

Feedback or suggestion? Click here.




ElementValue
Catalog46700
NameSTARLINK-1800
Epoch Orbit726
Epoch Day335.83336806
Epoch Year2020
RAAN258.2745
Inclination53.056
Eccentricity0.0001463
Argument of Perigee66.6433
Mean Anonmoly108.4545
Mean Motion15.27062237
Decay Rate-0.01064172
L11 46700U 20073AG 20335.83336806 -.01064172 00000-0 -43151-1 0 9997
L22 46700 53.0560 258.2745 0001463 66.6433 108.4545 15.27062237 7260

Live tracking and technical data element details for STARLINK-1800 (NORAD 46700). STARLINK-1800 can be tracked NOW for your location showing map with azimuth and elevation plus other details from your city location.

Track the satellite on the map from your city or location and see movement details for azimuth, elevation, latitude, longitude, range, height, and movement on the map or in text.







IsCatalogInMostPopularTable: catalog: 46700, numindb: 10
Update: records affected: 1



GetName: 46700 STARLINK-1800

Hit Count: updated at: Tue, 01 Dec 2020 20:59:04 GMT